WJA126 CYVR-CYYC

Flight info

Callsign WJA126
Flight time 1h 6m
Altitude 37000
Route DAPED DCT PETLI DCT MENBO Q983 NORET IGVEP7
Aircraft B738/M-SDE2E3FGHIRWXY/LB1

Departure

Time 2026-05-03 23:12
Airport Vancouver International Airport (CYVR)

Arrival

Time 2026-05-04 00:19
Airport Calgary International Airport (CYYC)
Time Latitude Longitude Altitude Speed Heading
2026-05-03 22:36 49.19185 -123.18210 17 ft 0 kts 10°
2026-05-03 23:00 49.19179 -123.18212 18 ft 4 kts 10°
2026-05-03 23:00 49.19153 -123.18220 17 ft 4 kts 22°
2026-05-03 23:01 49.19131 -123.18241 17 ft 4 kts 54°
2026-05-03 23:01 49.19123 -123.18271 20 ft 1 kts 98°
2026-05-03 23:01 49.19123 -123.18272 17 ft 1 kts 99°
2026-05-03 23:05 49.19123 -123.18263 17 ft 3 kts 99°
2026-05-03 23:05 49.19116 -123.18197 17 ft 10 kts 99°
2026-05-03 23:05 49.19101 -123.18096 18 ft 11 kts 117°
2026-05-03 23:05 49.19033 -123.18053 17 ft 11 kts 180°
2026-05-03 23:06 49.18956 -123.18064 18 ft 11 kts 179°
2026-05-03 23:06 49.18905 -123.17987 17 ft 11 kts 104°
2026-05-03 23:06 49.18889 -123.17864 18 ft 12 kts 101°
2026-05-03 23:06 49.18874 -123.17734 19 ft 13 kts 101°
2026-05-03 23:07 49.18857 -123.17595 17 ft 14 kts 98°
2026-05-03 23:07 49.18842 -123.17448 18 ft 14 kts 99°
2026-05-03 23:07 49.18825 -123.17294 17 ft 15 kts 98°
2026-05-03 23:07 49.18810 -123.17139 17 ft 14 kts 98°
2026-05-03 23:08 49.18794 -123.16991 17 ft 14 kts 101°
2026-05-03 23:08 49.18776 -123.16864 19 ft 10 kts 100°
2026-05-03 23:08 49.18761 -123.16734 19 ft 13 kts 100°
2026-05-03 23:08 49.18745 -123.16604 17 ft 12 kts 100°
2026-05-03 23:09 49.18730 -123.16477 20 ft 12 kts 100°
2026-05-03 23:09 49.18715 -123.16353 18 ft 12 kts 104°
2026-05-03 23:09 49.18672 -123.16251 19 ft 11 kts 133°
2026-05-03 23:09 49.18635 -123.16149 19 ft 11 kts 99°
2026-05-03 23:10 49.18601 -123.16052 19 ft 11 kts 147°
2026-05-03 23:10 49.18574 -123.16042 19 ft 3 kts 174°
2026-05-03 23:10 49.18553 -123.16044 21 ft 4 kts 183°
2026-05-03 23:10 49.18521 -123.16049 20 ft 6 kts 187°
2026-05-03 23:11 49.18481 -123.16082 19 ft 8 kts 229°
2026-05-03 23:11 49.18481 -123.16159 18 ft 7 kts 281°
2026-05-03 23:11 49.18483 -123.16180 18 ft 7 kts 280°
2026-05-03 23:11 49.18537 -123.16638 15 ft 80 kts 280°
2026-05-03 23:12 49.18672 -123.17797 20 ft 139 kts 279°
2026-05-03 23:12 49.18836 -123.19356 533 ft 145 kts 279°
2026-05-03 23:12 49.18997 -123.20812 1346 ft 140 kts 280°
2026-05-03 23:12 49.19164 -123.22386 1803 ft 158 kts 279°
2026-05-03 23:13 49.19347 -123.24217 2046 ft 189 kts 279°
2026-05-03 23:13 49.19548 -123.26313 2235 ft 214 kts 280°
2026-05-03 23:13 49.19790 -123.28683 2532 ft 230 kts 279°
2026-05-03 23:13 49.20030 -123.31218 2755 ft 250 kts 278°
2026-05-03 23:14 49.20272 -123.33896 3233 ft 264 kts 277°
2026-05-03 23:14 49.20441 -123.36683 4043 ft 265 kts 266°
2026-05-03 23:14 49.19905 -123.39394 4781 ft 271 kts 238°
2026-05-03 23:14 49.18588 -123.41445 5512 ft 276 kts 211°
2026-05-03 23:15 49.16766 -123.42396 6174 ft 281 kts 183°
2026-05-03 23:15 49.14854 -123.41979 6935 ft 280 kts 156°
2026-05-03 23:15 49.13268 -123.40311 7625 ft 280 kts 129°
2026-05-03 23:15 49.12330 -123.37732 8348 ft 279 kts 105°
2026-05-03 23:16 49.11839 -123.34866 9067 ft 283 kts 102°
2026-05-03 23:16 49.11411 -123.31934 9825 ft 284 kts 101°
2026-05-03 23:16 49.10991 -123.28942 10326 ft 296 kts 101°
2026-05-03 23:16 49.10549 -123.25747 10477 ft 319 kts 100°
2026-05-03 23:17 49.10079 -123.22327 10643 ft 340 kts 100°
2026-05-03 23:17 49.09797 -123.18682 10933 ft 353 kts 89°
2026-05-03 23:17 49.09898 -123.14909 11467 ft 358 kts 84°
2026-05-03 23:17 49.10108 -123.11108 12116 ft 361 kts 83°
2026-05-03 23:18 49.10333 -123.07274 12766 ft 365 kts 84°
2026-05-03 23:18 49.10543 -123.03383 13344 ft 371 kts 84°
2026-05-03 23:18 49.10733 -122.99437 13979 ft 375 kts 84°
2026-05-03 23:18 49.10905 -122.95453 14594 ft 378 kts 85°
2026-05-03 23:19 49.11064 -122.91431 15246 ft 381 kts 84°
2026-05-03 23:19 49.11215 -122.87380 15888 ft 385 kts 85°
2026-05-03 23:19 49.11362 -122.83280 16522 ft 388 kts 85°
2026-05-03 23:19 49.11506 -122.79152 17142 ft 392 kts 85°
2026-05-03 23:20 49.11649 -122.74977 17747 ft 395 kts 85°
2026-05-03 23:20 49.11791 -122.70772 18332 ft 399 kts 85°
2026-05-03 23:20 49.11933 -122.66523 18862 ft 402 kts 85°
2026-05-03 23:20 49.12074 -122.62250 19406 ft 404 kts 85°
2026-05-03 23:21 49.12215 -122.57945 19928 ft 408 kts 85°
2026-05-03 23:21 49.12356 -122.53607 20421 ft 412 kts 85°
2026-05-03 23:21 49.12496 -122.49225 20939 ft 414 kts 85°
2026-05-03 23:21 49.12590 -122.46254 21294 ft 416 kts 85°
2026-05-03 23:22 49.12867 -122.37358 22264 ft 422 kts 85°
2026-05-03 23:22 49.13004 -122.32866 22742 ft 425 kts 85°
2026-05-03 23:22 49.13141 -122.28341 23211 ft 428 kts 85°
2026-05-03 23:23 49.13277 -122.23782 23650 ft 431 kts 85°
2026-05-03 23:23 49.13412 -122.19187 24031 ft 434 kts 85°
2026-05-03 23:23 49.13545 -122.14581 24471 ft 435 kts 85°
2026-05-03 23:23 49.13677 -122.09963 24899 ft 437 kts 85°
2026-05-03 23:24 49.13806 -122.05374 25289 ft 439 kts 85°
2026-05-03 23:24 49.13936 -122.00713 25687 ft 441 kts 85°
2026-05-03 23:24 49.14064 -121.96046 26152 ft 440 kts 85°
2026-05-03 23:24 49.14190 -121.91375 26551 ft 441 kts 85°
2026-05-03 23:25 49.14315 -121.86674 26875 ft 444 kts 85°
2026-05-03 23:25 49.14439 -121.81946 27202 ft 446 kts 85°
2026-05-03 23:25 49.14562 -121.77201 27574 ft 448 kts 85°
2026-05-03 23:25 49.14683 -121.72443 27918 ft 450 kts 85°
2026-05-03 23:26 49.14811 -121.67661 28176 ft 452 kts 84°
2026-05-03 23:26 49.15081 -121.62874 28516 ft 452 kts 81°
2026-05-03 23:26 49.15493 -121.58088 28688 ft 457 kts 79°
2026-05-03 23:26 49.15966 -121.53286 29051 ft 458 kts 79°
2026-05-03 23:27 49.16448 -121.48490 29523 ft 456 kts 79°
2026-05-03 23:27 49.16916 -121.43718 29982 ft 453 kts 79°
2026-05-03 23:27 49.17366 -121.38959 30405 ft 450 kts 79°
2026-05-03 23:27 49.17798 -121.34237 30883 ft 447 kts 79°
2026-05-03 23:28 49.18213 -121.29547 31340 ft 444 kts 79°
2026-05-03 23:28 49.18623 -121.24878 31723 ft 443 kts 78°
2026-05-03 23:28 49.19028 -121.20225 32130 ft 440 kts 78°
2026-05-03 23:28 49.19429 -121.15603 32574 ft 436 kts 78°
2026-05-03 23:29 49.19824 -121.11015 33011 ft 434 kts 78°
2026-05-03 23:29 49.20220 -121.06422 33202 ft 437 kts 78°
2026-05-03 23:29 49.20614 -121.01825 33564 ft 436 kts 78°
2026-05-03 23:29 49.21004 -120.97248 33910 ft 434 kts 77°
2026-05-03 23:30 49.21389 -120.92696 34339 ft 429 kts 77°
2026-05-03 23:30 49.21769 -120.88176 34606 ft 429 kts 77°
2026-05-03 23:30 49.22150 -120.83637 34775 ft 431 kts 77°
2026-05-03 23:30 49.22532 -120.79086 34948 ft 432 kts 77°
2026-05-03 23:31 49.23291 -120.69946 34949 ft 431 kts 77°
2026-05-03 23:31 49.24036 -120.60860 34977 ft 430 kts 78°
2026-05-03 23:32 49.24775 -120.51770 34964 ft 431 kts 78°
2026-05-03 23:32 49.25509 -120.42643 34961 ft 433 kts 78°
2026-05-03 23:33 49.26239 -120.33487 34955 ft 434 kts 78°
2026-05-03 23:33 49.26963 -120.24308 34958 ft 435 kts 78°
2026-05-03 23:34 49.27681 -120.15106 34965 ft 436 kts 78°
2026-05-03 23:34 49.28393 -120.05883 34951 ft 437 kts 78°
2026-05-03 23:35 49.29101 -119.96640 34935 ft 437 kts 78°
2026-05-03 23:35 49.29799 -119.87382 34923 ft 437 kts 78°
2026-05-03 23:36 49.30491 -119.78118 34929 ft 438 kts 78°
2026-05-03 23:36 49.31178 -119.68846 34921 ft 439 kts 79°
2026-05-03 23:37 49.32384 -119.59751 34925 ft 432 kts 66°
2026-05-03 23:37 49.34953 -119.51520 34914 ft 428 kts 59°
2026-05-03 23:38 49.37677 -119.43407 34922 ft 427 kts 59°
2026-05-03 23:38 49.40374 -119.35275 34921 ft 428 kts 59°
2026-05-03 23:39 49.43037 -119.27149 34934 ft 429 kts 59°
2026-05-03 23:39 49.45730 -119.18881 35144 ft 434 kts 59°
2026-05-03 23:40 49.47074 -119.14738 35442 ft 432 kts 59°
2026-05-03 23:40 49.48411 -119.10608 35755 ft 430 kts 58°
2026-05-03 23:40 49.49744 -119.06497 35994 ft 430 kts 59°
2026-05-03 23:40 49.51069 -119.02392 36327 ft 427 kts 59°
2026-05-03 23:41 49.52390 -118.98291 36531 ft 428 kts 59°
2026-05-03 23:41 49.53712 -118.94183 36674 ft 430 kts 59°
2026-05-03 23:41 49.55041 -118.90049 36834 ft 430 kts 59°
2026-05-03 23:41 49.56365 -118.85920 36936 ft 430 kts 59°
2026-05-03 23:42 49.59013 -118.77647 36947 ft 430 kts 59°
2026-05-03 23:42 49.61648 -118.69382 36947 ft 429 kts 59°
2026-05-03 23:43 49.64290 -118.61080 36960 ft 433 kts 59°
2026-05-03 23:43 49.66957 -118.52671 36964 ft 439 kts 59°
2026-05-03 23:44 49.69637 -118.44166 36958 ft 442 kts 59°
2026-05-03 23:44 49.72332 -118.35611 36939 ft 443 kts 59°
2026-05-03 23:45 49.75020 -118.27047 36941 ft 443 kts 59°
2026-05-03 23:45 49.77698 -118.18474 36960 ft 442 kts 59°
2026-05-03 23:46 49.80367 -118.09902 36940 ft 442 kts 59°
2026-05-03 23:46 49.83029 -118.01328 36951 ft 441 kts 59°
2026-05-03 23:47 49.85675 -117.92767 36937 ft 441 kts 59°
2026-05-03 23:47 49.88320 -117.84193 36955 ft 440 kts 59°
2026-05-03 23:48 49.90951 -117.75629 36972 ft 441 kts 59°
2026-05-03 23:48 49.93583 -117.67032 36949 ft 440 kts 59°
2026-05-03 23:49 49.96204 -117.58444 36946 ft 440 kts 59°
2026-05-03 23:49 49.98817 -117.49847 36947 ft 440 kts 59°
2026-05-03 23:50 50.00984 -117.42696 36957 ft 440 kts 59°
2026-05-03 23:50 50.04034 -117.32621 36938 ft 439 kts 59°
2026-05-03 23:51 50.06617 -117.24034 36942 ft 438 kts 60°
2026-05-03 23:51 50.09193 -117.15415 36931 ft 440 kts 60°
2026-05-03 23:52 50.11777 -117.06757 36925 ft 440 kts 59°
2026-05-03 23:52 50.14349 -116.98106 36950 ft 440 kts 59°
2026-05-03 23:53 50.16933 -116.89400 36444 ft 447 kts 60°
2026-05-03 23:53 50.18233 -116.85006 35892 ft 445 kts 60°
2026-05-03 23:53 50.19528 -116.80616 35285 ft 445 kts 60°
2026-05-03 23:54 50.20821 -116.76226 34621 ft 447 kts 60°
2026-05-03 23:54 50.22122 -116.71805 33968 ft 448 kts 60°
2026-05-03 23:54 50.23415 -116.67393 33478 ft 444 kts 60°
2026-05-03 23:54 50.24696 -116.63014 32997 ft 441 kts 60°
2026-05-03 23:55 50.25964 -116.58675 32505 ft 438 kts 60°
2026-05-03 23:55 50.27227 -116.54346 32038 ft 435 kts 60°
2026-05-03 23:55 50.28475 -116.50065 31576 ft 432 kts 60°
2026-05-03 23:55 50.29718 -116.45794 31147 ft 430 kts 60°
2026-05-03 23:56 50.30952 -116.41545 30680 ft 428 kts 60°
2026-05-03 23:56 50.32178 -116.37317 30243 ft 426 kts 60°
2026-05-03 23:56 50.33393 -116.33107 29742 ft 424 kts 60°
2026-05-03 23:56 50.34604 -116.28923 29230 ft 421 kts 60°
2026-05-03 23:57 50.35807 -116.24756 28782 ft 418 kts 60°
2026-05-03 23:57 50.37002 -116.20611 28284 ft 416 kts 60°
2026-05-03 23:57 50.38185 -116.16493 27805 ft 413 kts 60°
2026-05-03 23:57 50.39323 -116.12369 27224 ft 413 kts 63°
2026-05-03 23:58 50.40331 -116.08130 26588 ft 417 kts 65°
2026-05-03 23:58 50.41270 -116.03834 26055 ft 416 kts 66°
2026-05-03 23:58 50.42185 -115.99544 25608 ft 413 kts 66°
2026-05-03 23:58 50.43097 -115.95279 25166 ft 411 kts 66°
2026-05-03 23:59 50.44011 -115.91053 24734 ft 409 kts 66°
2026-05-03 23:59 50.44931 -115.86840 24289 ft 408 kts 66°
2026-05-03 23:59 50.45851 -115.82645 23855 ft 406 kts 66°
2026-05-03 23:59 50.46774 -115.78443 23390 ft 406 kts 66°
2026-05-04 00:00 50.47693 -115.74256 22888 ft 405 kts 66°
2026-05-04 00:00 50.48606 -115.70090 22427 ft 402 kts 66°
2026-05-04 00:00 50.49509 -115.65960 21993 ft 398 kts 66°
2026-05-04 00:00 50.50402 -115.61867 21584 ft 395 kts 66°
2026-05-04 00:01 50.51288 -115.57802 21158 ft 392 kts 66°
2026-05-04 00:01 50.52166 -115.53765 20743 ft 389 kts 66°
2026-05-04 00:01 50.53038 -115.49749 20334 ft 387 kts 66°
2026-05-04 00:01 50.53903 -115.45753 19918 ft 384 kts 66°
2026-05-04 00:02 50.54756 -115.41785 19556 ft 381 kts 66°
2026-05-04 00:02 50.55597 -115.37851 19119 ft 379 kts 65°
2026-05-04 00:02 50.56434 -115.33938 18664 ft 375 kts 66°
2026-05-04 00:02 50.57251 -115.30088 18335 ft 369 kts 66°
2026-05-04 00:03 50.58070 -115.26267 17855 ft 367 kts 66°
2026-05-04 00:03 50.58607 -115.23750 17563 ft 364 kts 66°
2026-05-04 00:03 50.59397 -115.19996 17176 ft 359 kts 67°
2026-05-04 00:03 50.60191 -115.16275 16843 ft 357 kts 66°
2026-05-04 00:04 50.60977 -115.12587 16446 ft 355 kts 67°
2026-05-04 00:04 50.61754 -115.08916 16079 ft 352 kts 67°
2026-05-04 00:04 50.62523 -115.05270 15700 ft 350 kts 67°
2026-05-04 00:04 50.63290 -115.01641 15310 ft 348 kts 67°
2026-05-04 00:05 50.64056 -114.98029 14947 ft 347 kts 68°
2026-05-04 00:05 50.64820 -114.94422 14551 ft 346 kts 68°
2026-05-04 00:05 50.65578 -114.90824 14159 ft 345 kts 69°
2026-05-04 00:05 50.66330 -114.87247 13911 ft 340 kts 69°
2026-05-04 00:06 50.67035 -114.83744 13760 ft 333 kts 69°
2026-05-04 00:06 50.67751 -114.80316 13602 ft 325 kts 69°
2026-05-04 00:06 50.68452 -114.76978 13447 ft 316 kts 69°
2026-05-04 00:06 50.69136 -114.73737 13296 ft 308 kts 69°
2026-05-04 00:07 50.69794 -114.70573 13183 ft 299 kts 68°
2026-05-04 00:07 50.70431 -114.67511 13037 ft 290 kts 68°
2026-05-04 00:07 50.71353 -114.64789 12839 ft 277 kts 43°
2026-05-04 00:07 50.72689 -114.62639 12652 ft 275 kts 42°
2026-05-04 00:08 50.74041 -114.60468 12414 ft 279 kts 41°
2026-05-04 00:08 50.75406 -114.58257 12180 ft 282 kts 41°
2026-05-04 00:08 50.76785 -114.56016 11896 ft 286 kts 41°
2026-05-04 00:08 50.78175 -114.53742 11627 ft 290 kts 41°
2026-05-04 00:09 50.79575 -114.51453 11339 ft 288 kts 41°
2026-05-04 00:09 50.80966 -114.49177 11064 ft 286 kts 40°
2026-05-04 00:09 50.82383 -114.46988 10782 ft 284 kts 38°
2026-05-04 00:09 50.83800 -114.44855 10522 ft 282 kts 38°
2026-05-04 00:10 50.85222 -114.42717 10242 ft 280 kts 38°
2026-05-04 00:10 50.86626 -114.40594 9989 ft 278 kts 39°
2026-05-04 00:10 50.88013 -114.38485 9705 ft 276 kts 38°
2026-05-04 00:10 50.89386 -114.36388 9439 ft 273 kts 39°
2026-05-04 00:11 50.90736 -114.34283 9167 ft 272 kts 44°
2026-05-04 00:11 50.91589 -114.31587 8885 ft 282 kts 75°
2026-05-04 00:11 50.91676 -114.28477 8670 ft 284 kts 88°
2026-05-04 00:11 50.91568 -114.25407 8588 ft 272 kts 89°
2026-05-04 00:12 50.91467 -114.22482 8465 ft 259 kts 88°
2026-05-04 00:12 50.91381 -114.19712 8368 ft 245 kts 86°
2026-05-04 00:12 50.91306 -114.17084 8261 ft 233 kts 86°
2026-05-04 00:12 50.91265 -114.14551 8076 ft 224 kts 84°
2026-05-04 00:13 50.91270 -114.12105 7614 ft 229 kts 84°
2026-05-04 00:13 50.91281 -114.09514 7152 ft 234 kts 83°
2026-05-04 00:13 50.91280 -114.06999 7033 ft 221 kts 83°
2026-05-04 00:13 50.91466 -114.04743 6959 ft 190 kts 54°
2026-05-04 00:14 50.92367 -114.03537 6958 ft 169 kts 14°
2026-05-04 00:14 50.93483 -114.02933 6727 ft 167 kts 15°
2026-05-04 00:14 50.94552 -114.02497 6549 ft 148 kts
2026-05-04 00:14 50.95528 -114.02319 6346 ft 134 kts
2026-05-04 00:15 50.96482 -114.02228 6156 ft 138 kts
2026-05-04 00:15 50.97439 -114.02183 6005 ft 134 kts 359°
2026-05-04 00:15 50.98364 -114.02162 5801 ft 132 kts 358°
2026-05-04 00:15 50.99272 -114.02151 5620 ft 133 kts 359°
2026-05-04 00:16 51.00223 -114.02148 5421 ft 141 kts 359°
2026-05-04 00:16 51.01222 -114.02142 5279 ft 141 kts 360°
2026-05-04 00:16 51.02174 -114.02152 5075 ft 135 kts 358°
2026-05-04 00:16 51.03113 -114.02148 4934 ft 135 kts 359°
2026-05-04 00:17 51.04050 -114.02162 4746 ft 135 kts 359°
2026-05-04 00:17 51.04997 -114.02162 4519 ft 137 kts 360°
2026-05-04 00:17 51.05946 -114.02157 4342 ft 136 kts
2026-05-04 00:17 51.06907 -114.02146 4158 ft 135 kts
2026-05-04 00:18 51.07848 -114.02131 3937 ft 135 kts
2026-05-04 00:18 51.08752 -114.02152 3771 ft 128 kts
2026-05-04 00:18 51.09656 -114.02137 3620 ft 131 kts
2026-05-04 00:18 51.10517 -114.02141 3557 ft 112 kts
2026-05-04 00:19 51.11199 -114.02139 3555 ft 83 kts
2026-05-04 00:19 51.11652 -114.02135 3545 ft 48 kts 359°
2026-05-04 00:19 51.11886 -114.02134 3548 ft 27 kts
2026-05-04 00:19 51.12069 -114.02131 3549 ft 26 kts
2026-05-04 00:20 51.12177 -114.02129 3549 ft 25 kts